Location: Hains Lake
(37.8540°N, 99.8578°W)
Time: 15:12:15
(UTC+00:00)

Vanguard 1 - Pass Details

Date: 07 December 2021
Orbit: 652 x 3830 km, 34.2° (Epoch: 22 January)

Event Time Altitude Azimuth Distance (km) Brightness Sun altitude
Exits shadow 08:40:36 61° 112° (ESE) 3,806 12.8 -58.4°
Drops below altitude 10° 08:53:54 10° 100° (E) 5,553 14.2 -55.9°
Sets 08:57:22 0° 99° (E) 6,234 14.6 -55.2°
